Orbital Elements at Epoch 2459000.5 (2020-May-31.0) TDB
Reference: JPL 28 (heliocentric ecliptic J2000)
Element | Value | Uncertainty (1-sigma) | Units |
e | .05288756730672603 | 6.3993e-08 | |
a | 3.15612129850723 | 3.2737e-08 | au |
q | 2.989201720904238 | 2.0978e-07 | au |
i | 9.671085069083606 | 5.5398e-06 | deg |
node | 275.7409507083891 | 3.9512e-05 | deg |
peri | 239.6900868644779 | 6.5419e-05 | deg |
M | 326.4008753111641 | 5.1478e-05 | deg |
tp | 2459191.641248569570 (2020-Dec-08.14124857) | 0.00029341 | TDB |
period | 2047.995301136794 5.61 | 3.1864e-05 8.724e-08 | d yr |
n | .1757816533075894 | 2.7349e-09 | deg/d |
Q | 3.323040876110223 | 3.4468e-08 | au |
|
| | Orbit Determination Parameters
Additional Information
|